Location: Newark
(52.8300°N, 8.0000°E)
Time: 05:59:47
(UTC+00:00)

STARLINK-1080 - Pass Details

Date: 31 January 2020
Orbit: 348 x 351 km, 53.0° (Epoch: 24 February)

Event Time Altitude Azimuth Distance (km) Brightness Sun altitude
Rises 17:01:36 0° 284° (WNW) 2,166 7.8 -8.0°
Reaches altitude 10° 17:03:40 10° 276° (W) 1,321 6.8 -8.3°
Maximum altitude 17:06:27 40° 205° (SSW) 540 4.0 -8.7°
Drops below altitude 10° 17:09:14 10° 134° (SE) 1,315 5.3 -9.1°
Enters shadow 17:10:42 - 128° (SE) 1,910 6.0 -9.3°
